| time (UTC) | temp C | wind direction | speed KPH | gust KPH | rain 1hr cm | rain 24hr cm | rain mn cm | humidity % | barometer mb |
| 20260507142354 | 12 | 279 | 0.0 | 0.0 | 0.00 | 0.00 | 0.00 | 45 | 1014.7 |
| 20260507141414 | 11 | 266 | 0.0 | 0.0 | 0.00 | 0.00 | 0.00 | 44 | 1014.7 |
| 20260507140354 | 11 | 274 | 0.0 | 0.0 | 0.00 | 0.00 | 0.00 | 46 | 1014.7 |
| 20260507135417 | 11 | 284 | 0.0 | 0.0 | 0.00 | 0.00 | 0.00 | 47 | 1014.6 |
| 20260507134343 | 11 | 259 | 0.0 | 6.4 | 0.00 | 0.00 | 0.00 | 47 | 1014.7 |
| 20260507133349 | 11 | 248 | 0.0 | 0.0 | 0.00 | 0.00 | 0.00 | 50 | 1014.7 |
| 20260507132338 | 11 | 246 | 0.0 | 0.0 | 0.00 | 0.00 | 0.00 | 53 | 1014.8 |
| 20260507131307 | 10 | 316 | 0.0 | 0.0 | 0.00 | 0.00 | 0.00 | 58 | 1014.8 |
| 20260507130247 | 10 | 245 | 0.0 | 0.0 | 0.00 | 0.00 | 0.00 | 64 | 1014.9 |
| 20260507125307 | 9 | 266 | 0.0 | 0.0 | 0.00 | 0.00 | 0.00 | 72 | 1014.8 |
| 20260507124235 | 8 | 300 | 0.0 | 0.0 | 0.00 | 0.00 | 0.00 | 81 | 1014.8 |
| 20260507123238 | 7 | 300 | 0.0 | 0.0 | 0.00 | 0.00 | 0.00 | 85 | 1014.9 |
| 20260507122301 | 7 | 302 | 0.0 | 0.0 | 0.00 | 0.00 | 0.00 | 86 | 1014.9 |
| 20260507115121 | 4 | 298 | 0.0 | 0.0 | 0.00 | 0.00 | 0.00 | 87 | 1014.8 |
| 20260507114053 | 3 | 298 | 0.0 | 0.0 | 0.00 | 0.00 | 0.00 | 86 | 1014.9 |
| 20260507113059 | 2 | 298 | 0.0 | 0.0 | 0.00 | 0.00 | 0.00 | 85 | 1014.7 |
| 20260507105844 | 2 | 298 | 0.0 | 0.0 | 0.00 | 0.00 | 0.00 | 84 | 1014.5 |
| 20260507104902 | 2 | 298 | 0.0 | 0.0 | 0.00 | 0.00 | 0.00 | 84 | 1014.4 |
| 20260507103907 | 2 | 298 | 0.0 | 0.0 | 0.00 | 0.00 | 0.00 | 84 | 1014.1 |
| 20260507101708 | 2 | 298 | 0.0 | 0.0 | 0.00 | 0.00 | 0.00 | 84 | 1014.1 |
| 20260507095615 | 2 | 298 | 0.0 | 0.0 | 0.00 | 0.00 | 0.00 | 84 | 1014.1 |
| 20260507094631 | 2 | 298 | 0.0 | 0.0 | 0.00 | 0.00 | 0.00 | 84 | 1014.1 |
| 20260507093600 | 2 | 298 | 0.0 | 0.0 | 0.00 | 0.00 | 0.00 | 84 | 1014.0 |
| 20260507092551 | 3 | 298 | 0.0 | 0.0 | 0.00 | 0.00 | 0.00 | 84 | 1013.9 |
| 20260507091553 | 3 | 298 | 0.0 | 0.0 | 0.00 | 0.00 | 0.00 | 83 | 1013.9 |
| 20260507090600 | 3 | 298 | 0.0 | 0.0 | 0.00 | 0.00 | 0.00 | 83 | 1013.9 |
| 20260507085607 | 3 | 298 | 0.0 | 0.0 | 0.00 | 0.00 | 0.00 | 83 | 1013.9 |
| 20260507084539 | 3 | 298 | 0.0 | 0.0 | 0.00 | 0.00 | 0.00 | 83 | 1013.8 |
| 20260507082446 | 3 | 298 | 0.0 | 0.0 | 0.00 | 0.00 | 0.00 | 83 | 1013.8 |
| 20260507081445 | 3 | 298 | 0.0 | 0.0 | 0.00 | 0.00 | 0.00 | 83 | 1013.7 |
| 20260507075410 | 3 | 298 | 0.0 | 0.0 | 0.00 | 0.03 | 0.00 | 83 | 1013.7 |
| 20260507074352 | 3 | 298 | 0.0 | 0.0 | 0.00 | 0.08 | 0.00 | 83 | 1013.8 |
| 20260507073318 | 4 | 298 | 0.0 | 0.0 | 0.00 | 0.10 | 0.00 | 83 | 1013.8 |
| 20260507072256 | 4 | 298 | 0.0 | 0.0 | 0.00 | 0.13 | 0.00 | 83 | 1013.8 |
| 20260507071242 | 4 | 298 | 0.0 | 0.0 | 0.00 | 0.13 | 0.00 | 83 | 1013.8 |
| 20260507065058 | 5 | 298 | 0.0 | 0.0 | 0.00 | 0.13 | 0.00 | 83 | 1013.8 |
| 20260507064058 | 5 | 298 | 0.0 | 0.0 | 0.00 | 0.15 | 0.00 | 83 | 1013.9 |
| 20260507063035 | 5 | 298 | 0.0 | 0.0 | 0.00 | 0.15 | 0.00 | 83 | 1013.8 |
| 20260507062017 | 5 | 298 | 0.0 | 0.0 | 0.00 | 0.18 | 0.00 | 83 | 1013.9 |
| 20260507060949 | 5 | 298 | 0.0 | 0.0 | 0.00 | 0.23 | 0.00 | 83 | 1013.9 |
| 20260507055953 | 5 | 298 | 0.0 | 0.0 | 0.00 | 0.28 | 0.00 | 83 | 1014.0 |
| 20260507054936 | 5 | 298 | 0.0 | 0.0 | 0.00 | 0.30 | 0.00 | 82 | 1013.9 |
| 20260507053925 | 5 | 298 | 0.0 | 0.0 | 0.00 | 0.33 | 0.00 | 82 | 1013.9 |
| 20260507052912 | 5 | 298 | 0.0 | 0.0 | 0.00 | 0.38 | 0.00 | 81 | 1014.1 |
| 20260507051900 | 5 | 298 | 0.0 | 0.0 | 0.00 | 0.41 | 0.00 | 81 | 1014.2 |
| 20260507050853 | 5 | 298 | 0.0 | 0.0 | 0.00 | 0.46 | 0.00 | 81 | 1014.2 |
| 20260507045828 | 5 | 298 | 0.0 | 0.0 | 0.00 | 0.51 | 0.00 | 81 | 1014.1 |
| 20260507044815 | 5 | 298 | 0.0 | 0.0 | 0.00 | 0.53 | 0.00 | 80 | 1014.0 |
| 20260507043805 | 5 | 298 | 0.0 | 0.0 | 0.00 | 0.56 | 0.00 | 80 | 1013.9 |
| 20260507042807 | 6 | 298 | 0.0 | 0.0 | 0.00 | 0.58 | 0.00 | 79 | 1013.9 |
| 20260507041813 | 6 | 298 | 0.0 | 0.0 | 0.00 | 0.61 | 0.00 | 79 | 1013.9 |
| 20260507040834 | 6 | 298 | 0.0 | 0.0 | 0.00 | 0.66 | 0.00 | 79 | 1013.8 |
| 20260507034743 | 6 | 298 | 0.0 | 0.0 | 0.00 | 0.66 | 0.69 | 78 | 1013.8 |
| 20260507033748 | 6 | 298 | 0.0 | 0.0 | 0.00 | 0.66 | 0.69 | 78 | 1013.8 |
| 20260507032730 | 7 | 298 | 0.0 | 0.0 | 0.00 | 0.66 | 0.69 | 77 | 1014.0 |
| 20260507031701 | 7 | 298 | 0.0 | 0.0 | 0.00 | 0.71 | 0.69 | 77 | 1014.0 |
| 20260507030709 | 7 | 298 | 0.0 | 0.0 | 0.00 | 0.71 | 0.69 | 77 | 1014.0 |
| 20260507023358 | 8 | 298 | 0.0 | 0.0 | 0.00 | 0.76 | 0.69 | 74 | 1014.2 |
| 20260507022336 | 8 | 298 | 0.0 | 0.0 | 0.00 | 0.81 | 0.69 | 73 | 1014.0 |
| 20260507021353 | 8 | 298 | 0.0 | 0.0 | 0.00 | 0.86 | 0.69 | 72 | 1014.0 |
| 20260507020345 | 9 | 298 | 0.0 | 0.0 | 0.00 | 0.91 | 0.69 | 70 | 1013.8 |
| 20260507014134 | 10 | 298 | 0.0 | 0.0 | 0.00 | 0.97 | 0.69 | 67 | 1013.5 |
| 20260507013116 | 11 | 298 | 0.0 | 0.0 | 0.00 | 0.99 | 0.69 | 65 | 1013.5 |
| 20260507012131 | 11 | 298 | 0.0 | 0.0 | 0.00 | 1.09 | 0.69 | 62 | 1013.5 |
| 20260507011058 | 12 | 298 | 0.0 | 0.0 | 0.00 | 1.17 | 0.69 | 60 | 1013.5 |
| 20260507004932 | 12 | 298 | 0.0 | 0.0 | 0.00 | 1.32 | 0.69 | 56 | 1013.3 |
| 20260507003923 | 12 | 298 | 0.0 | 0.0 | 0.00 | 1.32 | 0.69 | 54 | 1013.0 |
| 20260507002923 | 12 | 298 | 0.0 | 0.0 | 0.00 | 1.37 | 0.69 | 50 | 1012.8 |
| 20260507001854 | 13 | 298 | 0.0 | 0.0 | 0.00 | 1.42 | 0.69 | 50 | 1012.8 |
| 20260507000832 | 13 | 298 | 0.0 | 0.0 | 0.00 | 1.47 | 0.69 | 49 | 1012.7 |
| 20260506235800 | 13 | 298 | 0.0 | 0.0 | 0.00 | 1.50 | 0.69 | 49 | 1012.7 |
| 20260506232521 | 13 | 345 | 0.0 | 0.0 | 0.00 | 1.60 | 0.69 | 47 | 1012.6 |
| 20260506231454 | 14 | 32 | 0.0 | 0.0 | 0.00 | 1.63 | 0.69 | 46 | 1012.5 |
| 20260506230512 | 14 | 283 | 0.0 | 0.0 | 0.00 | 1.70 | 0.69 | 46 | 1012.6 |
| 20260506225512 | 14 | 281 | 0.0 | 0.0 | 0.00 | 1.73 | 0.69 | 46 | 1012.7 |
| 20260506224534 | 14 | 45 | 0.0 | 0.0 | 0.00 | 1.80 | 0.69 | 46 | 1013.0 |
| 20260506223525 | 14 | 255 | 0.0 | 0.0 | 0.00 | 1.93 | 0.69 | 47 | 1012.9 |
| 20260506222514 | 14 | 255 | 0.0 | 0.0 | 0.00 | 1.96 | 0.69 | 45 | 1013.0 |
| 20260506221523 | 14 | 254 | 0.0 | 0.0 | 0.00 | 1.96 | 0.69 | 46 | 1013.1 |
| 20260506220514 | 14 | 288 | 0.0 | 0.0 | 0.00 | 2.01 | 0.69 | 45 | 1013.0 |
| 20260506214407 | 14 | 243 | 0.0 | 0.0 | 0.00 | 2.06 | 0.69 | 43 | 1012.8 |
| 20260506213423 | 14 | 253 | 0.0 | 0.0 | 0.00 | 2.06 | 0.69 | 42 | 1012.7 |
| 20260506212414 | 15 | 227 | 0.0 | 0.0 | 0.00 | 2.06 | 0.69 | 43 | 1012.6 |
| 20260506211356 | 15 | 257 | 0.0 | 3.2 | 0.00 | 2.06 | 0.69 | 43 | 1012.4 |
| 20260506210347 | 14 | 259 | 0.0 | 0.0 | 0.00 | 2.08 | 0.69 | 47 | 1012.5 |
| 20260506205318 | 14 | 271 | 0.0 | 0.0 | 0.00 | 2.11 | 0.69 | 46 | 1012.3 |
| 20260506204323 | 14 | 295 | 0.0 | 0.0 | 0.00 | 2.13 | 0.69 | 46 | 1012.4 |
| 20260506203255 | 15 | 245 | 0.0 | 3.2 | 0.00 | 2.18 | 0.69 | 45 | 1012.4 |
| 20260506201113 | 15 | 298 | 0.0 | 0.0 | 0.00 | 2.26 | 0.69 | 45 | 1012.4 |
| 20260506200047 | 15 | 273 | 0.0 | 0.0 | 0.00 | 2.36 | 0.69 | 46 | 1012.2 |
| 20260506195030 | 15 | 252 | 0.0 | 0.0 | 0.00 | 2.36 | 0.69 | 45 | 1012.1 |
| 20260506194022 | 15 | 232 | 0.0 | 0.0 | 0.00 | 2.36 | 0.69 | 47 | 1012.1 |
| 20260506193039 | 15 | 252 | 0.0 | 0.0 | 0.00 | 2.36 | 0.69 | 49 | 1012.1 |
| 20260506192059 | 15 | 30 | 0.0 | 0.0 | 0.00 | 2.36 | 0.69 | 45 | 1012.2 |
| 20260506191113 | 15 | 231 | 0.0 | 0.0 | 0.00 | 2.36 | 0.69 | 46 | 1012.2 |
| 20260506190116 | 15 | 251 | 0.0 | 0.0 | 0.00 | 2.36 | 0.69 | 45 | 1012.2 |
| 20260506185141 | 16 | 265 | 0.0 | 0.0 | 0.00 | 2.36 | 0.69 | 44 | 1012.1 |
| 20260506184115 | 16 | 265 | 0.0 | 0.0 | 0.00 | 2.36 | 0.69 | 44 | 1012.0 |
| 20260506182027 | 16 | 271 | 0.0 | 0.0 | 0.00 | 2.36 | 0.69 | 47 | 1012.0 |
| 20260506180958 | 16 | 306 | 0.0 | 0.0 | 0.00 | 2.36 | 0.69 | 48 | 1012.1 |
| 20260506174922 | 16 | 232 | 0.0 | 0.0 | 0.00 | 2.36 | 0.69 | 48 | 1012.3 |
| 20260506171635 | 15 | 25 | 0.0 | 0.0 | 0.00 | 2.36 | 0.69 | 52 | 1012.4 |
| 20260506165558 | 16 | 78 | 0.0 | 0.0 | 0.00 | 2.36 | 0.69 | 51 | 1012.3 |
| 20260506164547 | 16 | 253 | 0.0 | 0.0 | 0.00 | 2.36 | 0.69 | 51 | 1012.1 |
| 20260506163548 | 15 | 277 | 0.0 | 0.0 | 0.00 | 2.36 | 0.69 | 52 | 1012.1 |
| 20260506162532 | 15 | 259 | 0.0 | 0.0 | 0.00 | 2.36 | 0.69 | 50 | 1012.3 |
| 20260506161546 | 15 | 262 | 0.0 | 0.0 | 0.00 | 2.36 | 0.69 | 54 | 1012.4 |
| 20260506160552 | 15 | 261 | 0.0 | 0.0 | 0.00 | 2.36 | 0.69 | 55 | 1012.2 |
| 20260506154432 | 14 | 252 | 0.0 | 0.0 | 0.00 | 2.36 | 0.69 | 58 | 1012.4 |
| 20260506153429 | 13 | 259 | 0.0 | 0.0 | 0.00 | 2.36 | 0.69 | 58 | 1012.2 |
| 20260506152412 | 13 | 275 | 0.0 | 0.0 | 0.00 | 2.36 | 0.69 | 58 | 1011.8 |
| 20260506151412 | 13 | 248 | 0.0 | 0.0 | 0.00 | 2.36 | 0.69 | 63 | 1011.6 |
| 20260506150415 | 12 | 347 | 0.0 | 0.0 | 0.00 | 2.36 | 0.69 | 66 | 1011.5 |
| 20260506145414 | 12 | 42 | 0.0 | 0.0 | 0.00 | 2.36 | 0.69 | 65 | 1011.3 |
| 20260506144340 | 12 | 252 | 0.0 | 0.0 | 0.00 | 2.36 | 0.69 | 65 | 1011.6 |